[[{"header":{"parameterUnit":"m.s-1","parameterCategory":1,"la1":30.2991,"la2":30.254,"lo1":-89.0895,"lo2":-89.0444,"dy":0.0017,"dx":0.0017,"nx":28,"ny":28,"refTime":"2023-09-10T03:00:00:Z","depth":0,"parameterNumber":2,"parameterNumberName":"U-component_of_WINDS"},"data":[0,0,0,0,0,0,0,0,0,0,0,0,0,0,0,0,0,0,0,0,0,0,0,0,0,0,0,0,0,0,0,0,0,0,0,0,0,0,0,0,0,0,0,0,0,0,0,0,0,0,0,0,0,0,0,0,0,0,0.7645,0.7647,0,0.7824,0.7826,0.7828,0.7828,0.7825,0.7823,0.7821,0.8009,0.8016,0.8023,0,0,0,0,0,0,0,0,0,0,0,0,0,0.7309,0.7315,0.7645,0.7647,0.7649,0.7823,0.7826,0.7828,0.7828,0.7825,0.7823,0.782,0.8006,0.8015,0.8023,0,0,0,0,0,0,0,0,0,0,0,0,0,0.7468,0.7317,0.7644,0.767,0.7674,0.7823,0.7826,0.7829,0.7829,0.7825,0.7822,0.7819,0.8003,0.8014,0.8025,0.8161,0,0,0.8057,0.8062,0,0,0,0,0,0,0,0,0.7459,0.748,0.7664,0.7668,0.7673,0.78,0.7776,0.794,0.783,0.777,0.7821,0.7817,0.7942,0.7958,0.7999,0.817,0.8178,0.8058,0.8065,0.8069,0.8072,0,0,0,0,0,0,0,0.7448,0.7473,0.7716,0.7667,0.7672,0.7675,0.7693,0.7807,0.7874,0.7775,0.7775,0.7796,0.7944,0.7989,0.8004,0.818,0.8058,0.8068,0.8074,0.8078,0.8474,0.8478,0,0,0,0,0,0,0.7431,0.7463,0.771,0.7721,0.7555,0.7683,0.7704,0.7763,0.7872,0.7886,0.7799,0.7796,0.7972,0.7991,0.801,0.8178,0.8069,0.8079,0.8086,0.847,0.8475,0.848,0,0,0,0,0,0,0.7424,0.7453,0.7703,0.7592,0.7624,0.7693,0.7758,0.7768,0.7813,0.7891,0.7903,0.7832,0.797,0.7995,0.8124,0.8185,0.8084,0.8094,0.8466,0.8472,0.8478,0.8515,0,0,0,0,0,0,0.7414,0.745,0.7501,0.7593,0.763,0.7811,0.7762,0.7774,0.7831,0.7828,0.7925,0.7938,0.7969,0.8108,0.8134,0.8198,0.8102,0.846,0.8468,0.8476,0.8508,0.8521,0.8532,0,0,0,0,0,0.7402,0.7505,0.7504,0.7533,0.7695,0.7815,0.7836,0.7869,0.7835,0.7888,0.7939,0.7935,0.8174,0.8121,0.8151,0.8218,0.8457,0.8466,0.8475,0.8503,0.8519,0.8532,0,0,0,0,0,0,0.7419,0.7517,0.7517,0.7652,0.7725,0.7814,0.7882,0.7884,0.7969,0.7963,0.8002,0.8024,0.8152,0.8198,0.8137,0.8358,0.8312,0.8327,0.8322,0.8338,0.835,0.8336,0.8111,0,0,0,0,0,0.7438,0.7525,0.7608,0.7719,0.7756,0.7813,0.7866,0.7885,0.7963,0.7994,0.8053,0.813,0.8223,0.8283,0.8373,0.8515,0.8538,0.8577,0.8589,0.8598,0.8612,0.8693,0.8712,0.851,0.851,0.851,0,0,0.7479,0.7544,0.7597,0.7724,0.7783,0.7874,0.7838,0.7936,0.8005,0.8009,0.8134,0.8181,0.8269,0.8406,0.8469,0.8448,0.8672,0.861,0.8617,0.8625,0.8704,0.8723,0.874,0.8516,0.8515,0.8514,0,0,0.76,0.7657,0.7757,0.7817,0.7906,0.7944,0.7968,0.8058,0.8089,0.8214,0.822,0.8304,0.8462,0.8525,0.8578,0.8726,0.8726,0.8755,0.8818,0.8896,0.8912,0.8926,0.898,0.8999,0.8767,0.8768,0.8768,0,0.764,0.7777,0.7809,0.7908,0.7965,0.7972,0.8075,0.8132,0.8246,0.8286,0.8261,0.8461,0.8521,0.8673,0.871,0.8752,0.8782,0.8743,0.8907,0.8921,0.8935,0.8987,0.9008,0.877,0.877,0.877,0.877,0,0.7822,0.7917,0.7988,0.8097,0.8162,0.8262,0.8312,0.8375,0.8389,0.843,0.856,0.8632,0.8737,0.8775,0.879,0.8931,0.8915,0.8898,0.8853,0.8957,0.9007,0.9027,0.8775,0.8774,0.8773,0.8772,0,0,0.7957,0.8085,0.811,0.816,0.826,0.8335,0.8438,0.8539,0.8593,0.8672,0.876,0.8895,0.888,0.8941,0.8963,0.9032,0.9147,0.9007,0.901,0.9031,0.9309,0.9321,0.9343,0.9148,0.9152,0.9155,0.9301,0,0.809,0.8269,0.8302,0.8459,0.8549,0.8558,0.8648,0.872,0.8762,0.8845,0.8892,0.8988,0.896,0.8997,0.9066,0.9118,0.9203,0.9108,0.9232,0.9236,0.9209,0.9369,0.9382,0.9516,0.9321,0.9324,0.9327,0,0.8267,0.8351,0.8516,0.8606,0.8645,0.8724,0.8822,0.8901,0.8984,0.901,0.9078,0.9094,0.9203,0.9153,0.9305,0.9239,0.9292,0.9326,0.9332,0.9345,0.9287,0.9386,0.9559,0.958,0.9357,0.9355,0.9353,0,0.835,0.8504,0.8623,0.8667,0.8774,0.883,0.8878,0.8958,0.9018,0.9104,0.9143,0.9241,0.9295,0.9371,0.9414,0.9373,0.9564,0.9516,0.9589,0.9588,0.9628,0.9625,0.9813,0.9662,0.9662,0.9662,0.9661,0,0.8494,0.8595,0.8662,0.8736,0.885,0.8889,0.9003,0.905,0.9121,0.9206,0.9221,0.9301,0.9352,0.944,0.9474,0.9596,0.962,0.9645,0.9653,0.9644,0.964,0.9678,0.967,0.9667,0.9666,0.9665,0.9664,0,0.8605,0.8654,0.8785,0.8877,0.8902,0.8983,0.9063,0.9136,0.9178,0.9285,0.9313,0.938,0.9485,0.9535,0.9664,0.9688,0.9825,0.9827,0.9797,0.98,0.987,0.9863,1.0088,1.0121,0.9949,0.995,0.9952,0,0.8693,0.8772,0.8872,0.8929,0.8978,0.907,0.9132,0.9174,0.9238,0.934,0.9402,0.9506,0.9592,0.9759,0.982,0.992,0.9925,0.9997,0.994,0.9929,0.9927,0.9921,0.993,1.0007,1.0009,1.001,1.0011,0,0.8846,0.8867,0.8953,0.905,0.9123,0.9201,0.9278,0.9325,0.938,0.9451,0.9557,0.9624,0.9757,0.9861,0.9966,1.0017,1.0025,1.0029,1.0051,1.0042,1.0021,1.0034,0.9825,1.0023,1.0022,1.0021,1.0021,1.002,0.8949,0.9019,0.9101,0.9198,0.9261,0.9333,0.9407,0.9459,0.9548,0.9658,0.9679,0.9792,0.9877,1.0018,1.0073,1.0164,1.0148,1.018,1.0188,1.0195,1.0199,1.0007,1.0183,1.0183,1.0183,1.0182,1.0182,0,0.9102,0.9155,0.9245,0.9352,0.9429,0.9429,0.9515,0.958,0.9679,0.9757,0.9841,0.9964,1.0067,1.0137,1.0241,1.0301,1.0307,1.0327,1.0322,1.0335,1.0207,1.0178,1.032,1.032,1.032,1.032,1.032,1.032,0.919,0.931,0.9341,0.9493,0.9547,0.9657,0.9707,0.9775,0.9837,0.9973,1.0058,1.0103,1.0179,1.0289,1.0384,1.0402,1.044,1.046,1.0479,1.0358,1.0343,1.033,1.0302,1.0468,1.0468,1.0599,1.06,1.0601]},{"header":{"parameterUnit":"m.s-1","parameterCategory":1,"la1":30.2991,"la2":30.254,"lo1":-89.0895,"lo2":-89.0444,"dy":0.0017,"dx":0.0017,"nx":28,"ny":28,"refTime":"2023-09-10T03:00:00:Z","depth":0,"parameterNumber":3,"parameterNumberName":"V-component_of_WINDS"},"data":[0,0,0,0,0,0,0,0,0,0,0,0,0,0,0,0,0,0,0,0,0,0,0,0,0,0,0,0,0,0,0,0,0,0,0,0,0,0,0,0,0,0,0,0,0,0,0,0,0,0,0,0,0,0,0,0,0,0,0.1135,0.1135,0,0.1072,0.1071,0.1071,0.0933,0.0931,0.0928,0.0925,0.0868,0.0869,0.087,0,0,0,0,0,0,0,0,0,0,0,0,0,0.1143,0.1144,0.1135,0.1135,0.1134,0.1072,0.1071,0.1071,0.0934,0.093,0.0927,0.0924,0.0868,0.0869,0.087,0,0,0,0,0,0,0,0,0,0,0,0,0,0.1116,0.1144,0.1136,0.1058,0.105,0.1072,0.1071,0.107,0.0935,0.093,0.0926,0.0922,0.0867,0.0869,0.087,0.0965,0,0,0.0876,0.0876,0,0,0,0,0,0,0,0,0.1118,0.1116,0.107,0.1063,0.1055,0.1006,0.1053,0.1035,0.0936,0.0979,0.0925,0.092,0.0918,0.0915,0.0913,0.0962,0.096,0.0876,0.0877,0.0877,0.0878,0,0,0,0,0,0,0,0.112,0.1118,0.1111,0.107,0.106,0.1028,0.102,0.1049,0.0973,0.0975,0.0965,0.0959,0.0913,0.0912,0.091,0.0959,0.0876,0.0877,0.0878,0.0879,0.1082,0.1086,0,0,0,0,0,0,0.1132,0.112,0.1113,0.1109,0.1076,0.1031,0.1022,0.1026,0.0972,0.096,0.0962,0.0952,0.0911,0.0909,0.0908,0.1014,0.0877,0.0879,0.088,0.1078,0.1083,0.1088,0,0,0,0,0,0,0.1133,0.1133,0.1115,0.1112,0.1107,0.1036,0.1042,0.1027,0.1025,0.0963,0.0949,0.0974,0.0907,0.0906,0.0951,0.1011,0.088,0.0881,0.1072,0.1079,0.1085,0.1229,0,0,0,0,0,0,0.1134,0.1134,0.1168,0.1113,0.1108,0.1158,0.1045,0.1029,0.1028,0.1014,0.0971,0.0959,0.0904,0.0949,0.0953,0.101,0.0882,0.1067,0.1075,0.1083,0.1219,0.124,0.1258,0,0,0,0,0,0.1134,0.1213,0.117,0.117,0.1148,0.1162,0.1159,0.1091,0.1033,0.1068,0.1027,0.0961,0.1003,0.0955,0.0958,0.1017,0.1063,0.1073,0.1083,0.121,0.1236,0.1257,0,0,0,0,0,0,0.1279,0.1204,0.1156,0.1219,0.1198,0.1139,0.118,0.1121,0.1117,0.1105,0.1024,0.1015,0.1072,0.1049,0.0996,0.1105,0.1022,0.1033,0.1118,0.1142,0.1161,0.1166,0.0884,0,0,0,0,0,0.1318,0.1333,0.1268,0.133,0.1321,0.1253,0.1256,0.1205,0.1181,0.1172,0.1134,0.1115,0.1123,0.1131,0.1136,0.1214,0.1203,0.1256,0.1276,0.1292,0.1303,0.1342,0.1365,0.112,0.112,0.112,0,0,0.14,0.136,0.1376,0.1358,0.1335,0.1354,0.1246,0.1271,0.1285,0.1176,0.1216,0.1188,0.1161,0.1223,0.1249,0.1206,0.1367,0.1305,0.1318,0.132,0.1354,0.1378,0.1398,0.1127,0.1126,0.1125,0,0,0.1558,0.1529,0.1577,0.1555,0.1521,0.1475,0.1487,0.1436,0.1412,0.145,0.1368,0.1385,0.1401,0.1385,0.1379,0.1528,0.1467,0.1532,0.1635,0.1674,0.1693,0.171,0.1763,0.1783,0.1543,0.1543,0.1544,0,0.1664,0.1687,0.161,0.1639,0.1634,0.1533,0.1581,0.1565,0.1536,0.1535,0.1487,0.1504,0.1479,0.1535,0.1571,0.157,0.1581,0.1538,0.1696,0.1712,0.1727,0.1777,0.1797,0.1551,0.155,0.155,0.1549,0,0.1819,0.1837,0.188,0.185,0.185,0.1889,0.1819,0.1828,0.1777,0.1736,0.1776,0.1742,0.1737,0.1746,0.1699,0.1796,0.177,0.171,0.1626,0.1759,0.1805,0.1823,0.1563,0.156,0.1558,0.1556,0,0,0.2069,0.1994,0.2011,0.1996,0.195,0.1963,0.1997,0.199,0.1999,0.1982,0.2009,0.2025,0.1968,0.1961,0.191,0.1944,0.2064,0.1879,0.1878,0.1915,0.217,0.2216,0.2239,0.2023,0.2026,0.2029,0.2172,0,0.2217,0.2269,0.22,0.2269,0.2284,0.2187,0.2217,0.2193,0.2156,0.2165,0.2124,0.2136,0.206,0.2055,0.2084,0.2044,0.2114,0.2032,0.2049,0.2051,0.206,0.2263,0.2312,0.2449,0.2189,0.2192,0.2194,0,0.2397,0.2385,0.2454,0.2402,0.2406,0.2434,0.242,0.2429,0.24,0.237,0.2362,0.2299,0.2331,0.2247,0.229,0.2236,0.2238,0.2219,0.2223,0.2223,0.2132,0.2269,0.2491,0.2512,0.2222,0.222,0.2218,0,0.2572,0.2574,0.2615,0.2605,0.2545,0.2567,0.2543,0.2509,0.2509,0.2498,0.2496,0.2491,0.2488,0.2485,0.2423,0.2368,0.2474,0.2386,0.2451,0.2453,0.2479,0.2479,0.2705,0.248,0.248,0.248,0.2479,0,0.2745,0.2792,0.2692,0.2718,0.2767,0.2687,0.2739,0.2705,0.2676,0.2694,0.2611,0.2631,0.2547,0.2558,0.251,0.2552,0.2552,0.253,0.2517,0.2537,0.254,0.2539,0.2528,0.2485,0.2484,0.2483,0.2482,0,0.295,0.2885,0.2924,0.2862,0.2848,0.2887,0.2836,0.2858,0.2813,0.2838,0.2839,0.2771,0.2779,0.2716,0.2714,0.2682,0.2748,0.2718,0.2757,0.2748,0.2817,0.2812,0.3052,0.3079,0.2837,0.2839,0.2841,0,0.3065,0.3098,0.3039,0.3044,0.3024,0.3034,0.3031,0.2954,0.2955,0.2923,0.2949,0.295,0.2946,0.2965,0.2916,0.2914,0.2884,0.2968,0.2883,0.2903,0.2885,0.2884,0.2887,0.2986,0.2989,0.2992,0.2994,0,0.3276,0.3241,0.324,0.3228,0.3227,0.3215,0.3197,0.3206,0.3121,0.3128,0.3134,0.3131,0.3126,0.3129,0.3116,0.3093,0.3031,0.302,0.3035,0.3058,0.3079,0.3068,0.2806,0.3016,0.3013,0.3012,0.3011,0.301,0.3439,0.3463,0.3425,0.3426,0.3404,0.3389,0.3405,0.3362,0.3365,0.3353,0.3308,0.3322,0.3291,0.3267,0.325,0.3261,0.322,0.3242,0.3248,0.3255,0.3267,0.3076,0.3258,0.3257,0.3257,0.3256,0.3256,0,0.3645,0.3615,0.3617,0.3593,0.3594,0.3531,0.3507,0.3514,0.3526,0.3501,0.3498,0.3505,0.3506,0.3457,0.3452,0.347,0.3441,0.3472,0.347,0.3466,0.3304,0.3291,0.3495,0.3495,0.3495,0.3495,0.3495,0.3495,0.3753,0.379,0.3751,0.3777,0.3746,0.3757,0.3749,0.3735,0.3714,0.3724,0.3724,0.369,0.3656,0.3647,0.3646,0.3631,0.3634,0.3675,0.3651,0.3501,0.3477,0.3455,0.3443,0.3676,0.3676,0.3811,0.3813,0.3814]}]]